"Pseudo-MPEC" for ZTF02rv

Created 2019 Feb 20 14:18:11 UT using Find_Orb

Click here for an explanation of pseudo-MPECs

 
 Astrometry: 
     ZTF02rv  C2019 02 09.25254009 25 02.18 +23 31 20.3    ~2A23 19.11RUNEOCPI41
     ZTF02rv  C2019 02 09.25288709 25 00.57 +23 31 04.7    ~2A23 19.11RUNEOCPI41
     ZTF02rv  C2019 02 09.26405709 24 11.73 +23 22 35.2    ~29LX 19.08RUNEOCPI41
     ZTF02rv  C2019 02 09.26440309 24 10.10 +23 22 18.7    ~29LX 19.08RUNEOCPI41
     ZTF02rv  C2019 02 09.26982409 23 46.33 +23 18 06.7    ~29LX 19.19RUNEOCPI41
     ZTF02rv  C2019 02 09.27017109 23 44.80 +23 17 50.7    ~29LX 19.19RUNEOCPI41
     ZTF02rv  C2019 02 09.33552109 18 52.83 +22 25 25.4    ~2A23 18.97RUNEOCPI41
     ZTF02rv  C2019 02 09.33586809 18 51.30 +22 25 08.1    ~2A23 18.97RUNEOCPI41

Station data:
(I41) Palomar Mountain--ZTF  (N33.357340 W116.859780)  US/California. 1.2-m
   f/2.44 Oschin Schmidt + CCD.

Orbital elements:  ZTF02rv
   Perigee 2019 Feb 10.330309 +/- 0.225 TT =  7:55:38 (JD 2458524.830309)
Epoch 2019 Feb  9.0 TT = JDT 2458523.5                        AutoNEOCP
q435981.496 +/- 33434               (J2000 equator)
H   31.6  G 0.15                    Peri.  169.84402 +/- 5.3
                                    Node   299.81540 +/- 0.13
e   2.4983171 +/- 1.11              Incl.  129.37400 +/- 1.0
From 8 observations 2019 Feb. 9 (2.0 hr); mean residual 0".62
Residuals in arcseconds: 
190209 I41  .80+  .41-    190209 I41  1.2-  .74+    190209 I41  .18-  .00     
190209 I41  .54-  .24-    190209 I41  .30+  .75-    190209 I41  .18+  .01+    
190209 I41  .31+  1.3+    190209 I41  .32+  .66-    

Ephemerides (geocentric):
Date (UTC) HH   RA              Dec         delta   r     elong  mag " sig PA
---- -- -- --  -------------   -----------  ------ ------ -----  --- ---- ---
2019 02 20 14  03 21 46.809   -49 09 00.01  .00882 .98621  73.3 25.3 3176 171
2019 02 20 15  03 21 13.482   -49 10 32.71  .00885 .98619  73.2 25.3 3181 172
2019 02 20 16  03 20 40.327   -49 12 04.16  .00888 .98618  73.0 25.3 3187 173
2019 02 20 17  03 20 07.345   -49 13 34.40  .00891 .98616  72.9 25.3 3193 174
2019 02 20 18  03 19 34.532   -49 15 03.43  .00894 .98615  72.8 25.3 3200 175
2019 02 20 19  03 19 01.889   -49 16 31.27  .00897 .98613  72.7 25.3 3208 176
2019 02 20 20  03 18 29.414   -49 17 57.94  .00900 .98612  72.6 25.3 3216 177
2019 02 20 21  03 17 57.106   -49 19 23.44  .00903 .98610  72.5 25.3 3226 178
2019 02 20 22  03 17 24.963   -49 20 47.79  .00906 .98609  72.4 25.4 3235 179
2019 02 20 23  03 16 52.985   -49 22 11.01  .00909 .98607  72.3 25.4 3245 179
2019 02 21 00  03 16 21.170   -49 23 33.11  .00912 .98606  72.2 25.4 3256   0
2019 02 21 01  03 15 49.516   -49 24 54.10  .00915 .98604  72.1 25.4 3267   1
2019 02 21 02  03 15 18.024   -49 26 14.00  .00917 .98603  72.0 25.4 3279   2
2019 02 21 03  03 14 46.691   -49 27 32.82  .00920 .98601  71.9 25.4 3292   3
2019 02 21 04  03 14 15.516   -49 28 50.57  .00923 .98600  71.8 25.4 3305   4
2019 02 21 05  03 13 44.499   -49 30 07.27  .00926 .98598  71.7 25.5 3318   5
2019 02 21 06  03 13 13.638   -49 31 22.93  .00929 .98597  71.7 25.5 3332   5
2019 02 21 07  03 12 42.932   -49 32 37.56  .00932 .98595  71.6 25.5 3347   6
2019 02 21 08  03 12 12.380   -49 33 51.18  .00935 .98594  71.5 25.5 3361   7
2019 02 21 09  03 11 41.981   -49 35 03.79  .00938 .98593  71.4 25.5 3377   8
2019 02 21 10  03 11 11.734   -49 36 15.41  .00941 .98591  71.3 25.5 3393   9
2019 02 21 11  03 10 41.637   -49 37 26.04  .00944 .98590  71.2 25.5 3409  10
2019 02 21 12  03 10 11.690   -49 38 35.71  .00947 .98588  71.1 25.5 3425  10
2019 02 21 13  03 09 41.892   -49 39 44.42  .00950 .98587  71.0 25.5 3442  11
2019 02 21 14  03 09 12.241   -49 40 52.19  .00953 .98585  70.9 25.6 3460  12
2019 02 21 15  03 08 42.736   -49 41 59.02  .00956 .98584  70.8 25.6 3478  13
2019 02 21 16  03 08 13.377   -49 43 04.93  .00959 .98582  70.7 25.6 3496  13
2019 02 21 17  03 07 44.162   -49 44 09.92  .00962 .98581  70.6 25.6 3514  14
2019 02 21 18  03 07 15.091   -49 45 14.01  .00965 .98579  70.5 25.6 3533  15
2019 02 21 19  03 06 46.162   -49 46 17.21  .00968 .98578  70.5 25.6 3552  15
2019 02 21 20  03 06 17.374   -49 47 19.53  .00971 .98576  70.4 25.6 3572  16
2019 02 21 21  03 05 48.727   -49 48 20.97  .00974 .98575  70.3 25.6 3592  17
2019 02 21 22  03 05 20.219   -49 49 21.56  .00977 .98573  70.2 25.7 3612  18
2019 02 21 23  03 04 51.849   -49 50 21.29  .00980 .98572  70.1 25.7 3632  18
2019 02 22 00  03 04 23.617   -49 51 20.18  .00983 .98571  70.0 25.7 3653  19
2019 02 22 01  03 03 55.521   -49 52 18.24  .00986 .98569  69.9 25.7 3674  20
2019 02 22 02  03 03 27.561   -49 53 15.47  .00989 .98568  69.8 25.7 3695  20
2019 02 22 03  03 02 59.736   -49 54 11.89  .00992 .98566  69.8 25.7 3716  21
2019 02 22 04  03 02 32.044   -49 55 07.51  .00995 .98565  69.7 25.7 3738  21
2019 02 22 05  03 02 04.485   -49 56 02.33  .00998 .98563  69.6 25.7 3760  22
2019 02 22 06  03 01 37.058   -49 56 56.37  .01001 .98562  69.5 25.7 3782  23
2019 02 22 07  03 01 09.762   -49 57 49.63  .01004 .98560  69.4 25.8 3805  23
2019 02 22 08  03 00 42.595   -49 58 42.12  .01007 .98559  69.3 25.8 3827  24
2019 02 22 09  03 00 15.558   -49 59 33.85  .01010 .98557  69.2 25.8 3850  24
2019 02 22 10  02 59 48.650   -50 00 24.83  .01013 .98556  69.2 25.8 3873  25
2019 02 22 11  02 59 21.868   -50 01 15.07  .01016 .98554  69.1 25.8 3896  26
2019 02 22 12  02 58 55.213   -50 02 04.57  .01019 .98553  69.0 25.8 3919  26
2019 02 22 13  02 58 28.684   -50 02 53.35  .01022 .98552  68.9 25.8 3942  27